Weather in Dugda

Russia / Amur Oblast     53°20′58″N   130°00′03″E
temp.,
°C
wind,
m/s
gust,
m/s
humid.,
%
clouds,
%
prec.,
mm/h
press.,
hPa
HPBL,
m
22 april, thu
thu2200:00+7ese375998 0.0 1012135
03:00+6ese3659100 0.0 1011138
06:00+4ene356472 0.0 101273
09:00+16s61035100 0.0 1009989
12:00+17ssw6939100 0.1 10091188
15:00+19wsw61040100 0.1 10091949
18:00+6wnw6885100 1.9 1015269
21:00+4nw81375100 2.6 1018414
23 april, fri
fri2300:00+1nw7127399 0.0 1021331
03:00−1wnw71266100 0.0 1023373
06:00−1nw81355100 0.0 1025504
09:00+1nw81041100 0.0 1027749
12:00+5nnw6736100 0.0 10271409
15:00+6nw9928100 0.0 10271542
18:00+3nnw810330 0.0 10281470
21:00−1nw511440 0.0 1030358
24 april, sat
sat2400:00−3wnw35510 0.0 102970
03:00−3wnw48623 0.0 1029158
06:00−3w496111 0.0 1027305
09:00+3nw8114153 0.0 10241282
12:00+6nw101328100 0.0 10223084
15:00+6nw101432100 0.1 10203180
18:00+4nw10183032 0.0 10202923
21:000nw713471 0.0 1021455
25 april, sun
sun2500:00−2nnw511452 0.0 1023269
03:00−3nw59480 0.0 1024177
06:00−3nnw38470 0.0 1024201
09:00+3nnw47270 0.0 10231457
12:00+7nw682711 0.0 10212147
15:00+9nw672752 0.0 10182239
18:00+8nnw463247 0.0 10181865
21:00+3nw1153100 0.0 101810
26 april, mon
mon2600:00+1se1158100 0.0 101811
03:000se2259100 0.0 101816
06:00+1e2554100 0.0 1017135
09:00+4se4544100 0.1 1015385
12:00+7se5739100 0.1 10131260
15:00+8sse6957100 0.6 10111305
18:00+7se71271100 1.3 10101036
21:00+5sse71293100 3.0 10091045